Find Starlink 31870

NORAD ID: 59787 Int'l Des: 2024-093 Owner: SPXS Country: US Constellation: starlink operational
LEOCIRCULAR

Current View

Loading 3D Globe...

About Starlink 31870

Starlink 31870 (NORAD 59787) is a starlink constellation satellite (v2 mini) launched May 18, 2024 by SPXS of US. It operates in LEO, CIRCULAR orbit with a mass of 730.00 kg.

Upcoming Passes

Passes for default location (London). Set your location on the main map for personalized predictions.

Altitude History

Loading altitude history...

Two-Line Element Set

1 59787U 24093F 26236.36509752 -.00000017 00000-0 89199-5 0 9990
2 59787 43.0029 341.5737 0001386 269.5154 90.5539 15.27576814128341
Epoch: Aug 24, 2026 • Age: 17 hours

Current Status

Altitude 494.5 km
Apogee / Perigee N/A
Velocity 7.62 km/s
Sub-Earth Point -40.70°S, 87.91°W
Launch Date May 18, 2024
Age 2.2 years
Type internet

Technical Details

Classification Payload
Mass 730.00 kg
Dry Mass 700.00 kg
Total Mass 730.00 kg
Length 0.30 m
Diameter 4.10 m
Span 29.00 m
Shape Box + pan
Manufacturer SPXS
Bus Type Starlink V2M
Phase Status In Orbit
Owner/State SPXS/US

Most Searched